Regional Weather Roundup
Issued by NWS State College, PA

Home | Current Version | Previous Version | Graphics & Text | Print | Product List | Glossary Off
Versions: 1 2 3 4 5 6 7 8 9 10 11 12 13 14 15 16 17 18 19 20 21 22 23 24 25 26 27 28 29 30 31 32 33 34 35 36 37 38 39 40 41 42 43 44 45 46 47 48 49 50

000
ASUS41 KCTP 120203
RWRCTP

REGIONAL WEATHER ROUNDUP
NATIONAL WEATHER SERVICE STATE COLLEGE PA
900 PM EST THU FEB 11 2016

Note: "fair" indicates few or no clouds below 12,000 feet with no
significant weather and/or obstructions to visibility.

* = STATION THAT DOES NOT REPORT PRECIPITATION /E.G. RAIN...SNOW...ETC/
    THUNDER OR FOG.

PAZ002>004-007>009-013>016-020>023-029>032-120300-
WESTERN PENNSYLVANIA

CITY           SKY/WX    TMP DP  RH WIND       PRES   REMARKS
ERIE           CLOUDY    17   3  54 NW7       30.24S WCI   8
MEADVILLE      MOCLDY    10   0  63 W3        30.19R
FRANKLIN*      CLOUDY    10   1  67 W7        30.20R WCI   0
NEW CASTLE     FLURRIES   7   4  87 SW3       30.25S
BEAVER COUNTY  PTCLDY    12   9  85 SW5       30.24R WCI   4
BUTLER*        MOCLDY    12   7  79 CALM      30.26S
PITTSBURGH INT MOCLDY    13  -2  51 W5        30.24R WCI   5
PITTSBURGH     PTCLDY    15  -2  46 W8        30.24R WCI   4
INDIANA*       CLOUDY    12   7  79 W8        30.24R WCI   1
LATROBE        CLEAR     10   0  61 CALM      30.26R
WASHINGTON CO* PTCLDY     7   0  72 CALM      30.25S
$$

PAZ004>006-010>012-017>019-024>028-033>037-041-042-045-046-049>053-120300-
CENTRAL PENNSYLVANIA

CITY           SKY/WX    TMP DP  RH WIND       PRES   REMARKS
BRADFORD       LGT SNOW   9   3  77 W8        30.08R WCI  -3
DUBOIS         PTCLDY     8  -1  66 W9        30.14R WCI  -5
CLEARFIELD     PTCLDY    11  -1  58 W9        30.17R WCI  -2
JOHNSTOWN      FLURRIES  10   1  67 W8        30.11R WCI  -2
ALTOONA        PTCLDY    13   2  61 NW12      30.18R WCI  -1
STATE COLLEGE  NOT AVBL
WILLIAMSPORT   FLURRIES  17   9  70 NW10      30.19R WCI   5
SELINSGROVE    CLEAR     17  -3  41 W9        30.22R WCI   6
FT INDIANTOWN  NOT AVBL
CAPITAL CITY   CLEAR     20   1  43 W15       30.23R WCI   6
HARRISBURG     PTCLDY    21   6  52 W16G24    30.23R WCI   7
YORK           MOCLDY    14   1  56 W6        30.23R WCI   5
$$

PAZ038>040-043-044-047-048-054-055-060>062-067>071-120300-
EASTERN PENNSYLVANIA

CITY           SKY/WX    TMP DP  RH WIND       PRES   REMARKS
SCRANTON       PTCLDY    14  -1  51 NW9       30.11R WCI   2
MOUNT POCONO   CLEAR      9  -4  55 W15G23    29.99R WCI  -8
ALLENTOWN      PTCLDY    19   6  57 W12G22    30.16R WCI   7
QUAKERTOWN*    MOCLDY    18   9  68 CALM      30.17R
READING        PTCLDY    19  -1  41 W16       30.19R WCI   4
LANCASTER      PTCLDY    15   3  59 W7        30.22R WCI   5
COATESVILLE    CLEAR     16   3  57 NW12      30.19R WCI   3
POTTSTOWN      PTCLDY    19   0  43 W10G17    30.20R WCI   7
BLUE BELL        N/A     19   1  45 W16G22    30.18R WCI   5
DOYLESTOWN     PTCLDY    17   8  67 W5        30.17R WCI  10
WILLOW GROVE   NOT AVBL
NORTH PHILA    PTCLDY    22   2  42 W14       30.21R WCI   9
PHILADELPHIA   PTCLDY    23  -2  33 W16G30    30.23R WCI  10
$$



USA.gov is the U.S. government's official web portal to all federal, state and local government web resources and services.